Location: *
(48.5333°S, 166.1000°W)
Time: 04:30:33
(UTC+00:00)

Daily predictions for brighter satellites

Satellite Brightness Start Highest point End
(mag) Time Altitude Azimuth Time Altitude Azimuth Time Altitude Azimuth
Cosmos 1869 3.3 06:20:40 10° S 06:24:44 83° E 06:28:40 10° N
CZ-2C R/B 3.8 06:23:20 10° NNE 06:28:03 86° ESE 06:32:46 10° SSW
Cosmos 1814 Rocket 4.2 06:27:30 10° SSW 06:32:41 59° ESE 06:37:52 10° NE
Okean O Rocket 4.0 06:29:25 10° S 06:33:24 31° WSW 06:37:20 10° NW
YAOGAN 1 2.6 06:32:47 10° SSE 06:37:11 60° ENE 06:41:30 10° N
Cosmos 1763 Rocket 4.3 06:33:30 10° SSW 06:38:46 56° WNW 06:43:59 10° N
ARGOS 3.9 06:34:46 10° SSE 06:39:41 33° E 06:44:33 10° NNE
Cosmos 2322 4.0 06:34:16 10° SSW 06:40:01 75° WNW 06:45:42 10° NNE
Cosmos 2058 3.0 06:38:20 10° N 06:42:28 59° E 06:46:41 10° SSE
Molniya-1 3.9 06:40:14 10° SW 06:42:39 51° NW 06:48:24 10° NNE
SL-08 ROCKET BODY 4.5 06:36:36 10° N 06:42:48 80° E 06:49:01 10° S
Cosmos 2297 Rocket 3.6 06:40:07 10° NE 06:43:34 17° E 06:47:03 10° ESE
In-Cosmos 22 Rocket 4.3 06:40:14 10° N 06:46:01 86° E 06:51:58 10° SSE
HJ-1C 3.6 06:43:49 10° SSE 06:47:07 47° E 06:50:23 10° N
Cosmos 405 2.9 06:47:12 10° S 06:50:48 82° ESE 06:54:22 10° NNE
Cosmos 1892 2.9 06:48:12 10° NNW 06:52:06 78° W 06:56:02 10° S
H-2A R/B 2.1 06:49:52 10° SSE 06:54:55 58° E 07:00:01 10° N
X-37B 2.9 06:54:29 10° NNE 06:54:43 10° NNE 06:54:43 10° NNE
CSL-04 Rocket 3.8 06:51:30 10° SSE 06:56:57 56° E 07:02:25 10° N
Cosmos 2221 3.0 06:52:39 10° SSW 06:57:00 64° W 07:01:19 10° N
Ariane Rocket 4.2 06:53:45 10° SE 06:57:51 23° E 07:01:12 13° NE
Cosmos 1375 Rocket 4.5 06:51:40 10° NNW 06:57:58 83° NE 07:04:22 10° SE
Cosmos 1842 Rocket 4.4 06:54:56 10° SSW 06:59:25 56° W 07:03:51 10° N
Cosmos 1570 Rocket 4.3 06:54:56 10° SSW 07:00:19 75° WNW 07:05:39 10° NNE
Cosmos 1408 2.6 06:57:04 10° N 07:00:51 90° ENE 07:04:40 10° S
Cosmos 540 Rocket 3.8 06:56:09 10° SSW 07:01:21 67° WNW 07:06:30 10° N
Nadezhda 1 Rocket 4.2 06:55:26 10° SSW 07:01:39 75° W 07:07:45 10° N
Lacrosse 5 rocket 3.4 07:00:01 10° WSW 07:03:52 27° S 07:07:33 10° ESE
Cosmos 841 Rocket 3.9 06:59:12 10° SSW 07:04:25 64° WNW 07:09:37 10° N
COSMOS 2428 2.9 06:59:07 10° SSW 07:04:53 75° WNW 07:10:36 10° NNE
SL-08 RB Rocket 4.2 07:01:42 10° SSE 07:06:07 41° E 07:10:25 10° NNE
Okean-O 3.3 07:01:46 10° S 07:06:14 60° WSW 07:10:38 10° NNW
Cosmos 2333 Rocket 2.8 07:00:33 10° SW 07:06:15 59° WNW 07:11:56 10° N
Cosmos 2208 Rocket 4.2 07:01:50 10° SSW 07:07:15 78° WNW 07:12:30 10° NNE
Cosmos 1346 Rocket 2.8 07:03:28 10° N 07:07:30 84° E 07:11:36 10° SSE
Cosmos 2084 Rocket 4.1 07:03:33 10° SW 07:07:45 48° NW 07:11:24 12° NNE
Helios 1A Rocket 4.0 07:03:58 10° S 07:08:03 50° WSW 07:12:07 10° NW
ATLAS CENTAUR R/B 4.0 07:07:44 10° W 07:11:48 28° SW 07:16:00 10° SSE
Cosmos 2219 4.0 07:07:54 10° NNE 07:12:48 30° ENE 07:17:42 10° SE
Cosmos 1825 2.1 07:10:41 10° N 07:14:30 82° E 07:18:22 10° SSE
Cosmos 2237 Rocket 2.4 07:10:04 10° SSW 07:15:47 59° ESE 07:19:55 18° NE
SJ-6B 3.6 07:14:16 10° SSE 07:17:44 31° E 07:19:30 21° NE
USA 229 DEB 3.9 07:10:08 10° NNW 07:17:48 74° NE 07:25:06 10° SE
USA 229 3.9 07:10:14 10° NNW 07:17:53 73° NE 07:25:11 10° SE
Cosmos 1076 Rocket 3.7 07:14:21 10° NNW 07:18:43 80° W 07:23:13 10° S
SeaSat 1 4.4 07:19:43 10° E 07:20:22 11° E 07:20:22 11° E
USA 267 3.2 07:15:02 10° SE 07:21:42 82° NE 07:28:20 10° NW
USA 281 3.8 07:16:34 10° SSE 07:23:06 61° WSW 07:29:35 10° NW
ISS -3.3 07:20:09 10° WSW 07:23:35 60° SSE 07:25:45 20° E
CZ-4 R/B 3.2 07:22:14 10° S 07:26:10 36° WSW 07:30:00 10° NW
Cosmos 1980 3.7 07:20:54 10° SSW 07:26:38 73° ESE 07:30:34 21° NE
Cosmos 1633 3.8 07:27:47 23° E 07:28:14 24° E 07:31:12 10° SE
H-2A R/B 4.0 07:25:47 10° N 07:29:47 59° WNW 07:33:58 10° SSW
NOSS 3-1 (A) 4.1 07:24:04 10° NNW 07:32:48 74° NE 07:40:26 10° SE
Okean 3 Rocket 4.0 07:30:30 21° NNE 07:33:07 44° E 07:37:30 10° SSE
CENTAUR R/B 4.5 07:28:26 10° SW 07:33:22 22° S 07:37:48 10° ESE
Cosmos 1766 Rocket 3.9 07:36:03 24° NNE 07:38:19 45° E 07:42:36 10° SSE
SL-16 R/B 3.0 07:36:25 10° SSW 07:41:49 39° SE 07:44:56 22° ENE
MetOp-A 4.3 07:39:24 10° SSE 07:44:46 55° E 07:48:32 19° N
Cosmos 2227 Rocket 2.6 07:43:13 18° N 07:47:05 42° ENE 07:52:27 10° SE
Cosmos 2184 Rocket 4.3 07:44:26 21° NNE 07:48:30 50° E 07:54:40 10° SSE
Meteor 1-26 Rocket 4.3 07:43:45 10° S 07:49:12 59° ESE 07:51:58 29° NE
USA 186 2.1 07:45:56 10° S 07:49:17 67° WSW 07:51:43 17° NNW
Cosmos 2219 Rocket 3.7 07:45:06 10° SW 07:50:02 31° WNW 07:54:56 10° NNW
Cosmos 1606 3.0 07:46:54 10° SSW 07:50:44 66° W 07:52:49 25° N
TELKOM 3 3.6 07:47:18 10° WSW 07:51:03 79° NNW 07:51:41 54° ENE
NOSS 3-1 (C) 4.4 07:42:39 10° NW 07:51:19 71° SW 07:58:47 10° SE
Cosmos 1441 Rocket 3.6 07:51:25 39° ENE 07:51:58 42° E 07:55:37 10° SSE
Cosmos 1151 Rocket 3.1 07:47:35 10° S 07:52:01 66° ESE 07:53:49 34° NNE
Cosmos 1709 Rocket 4.5 07:49:30 10° NNW 07:55:46 63° WSW 08:02:02 10° S
MOS 1-B Rocket 4.4 07:49:58 18° NNE 07:56:03 85° WNW 08:02:39 10° SSW
FREGAT/IRIS 2.1 07:53:28 10° SSE 07:56:08 87° WSW 07:56:10 86° WNW
USA 234 3.4 07:53:29 25° NE 07:57:28 64° NW 08:04:03 10° WSW
SPOT 3 Rocket 4.1 07:54:13 10° SSE 07:59:04 37° E 08:00:20 32° NE
Meteor 1-4 Rocket 3.4 08:02:15 10° S 08:05:36 34° ESE 08:05:40 34° ESE
Cosmos 1328 Rocket 3.5 08:01:42 10° S 08:06:16 82° E 08:07:54 39° NNE
Cosmos 389 Rocket 3.0 08:03:38 10° SSW 08:07:15 59° W 08:08:27 37° NNW
Cosmos 1933 3.5 08:03:18 10° SSW 08:07:29 73° W 08:09:05 36° N
Resurs 01 Rocket 2.2 08:03:31 10° SSE 08:07:46 37° E 08:08:04 36° ENE
Cosmos 2151 3.8 08:04:35 10° NNW 08:08:45 50° WSW 08:13:01 10° S
Cosmos 2074 Rocket 4.0 08:04:49 23° N 08:08:55 72° E 08:15:16 10° SSE
OBJECT-B 0.7 08:07:12 10° SSE 08:10:34 89° WNW 08:11:03 63° NNW
ARIANE 5 R/B 4.1 08:10:22 10° SE 08:13:10 22° ESE 08:13:10 22° ESE
Cosmos 1408 Rocket 3.6 08:15:31 48° NNE 08:16:30 63° E 08:20:54 10° SSE
Meteor 2-17 Rocket 4.5 08:11:27 16° N 08:16:31 84° W 08:22:48 10° S
ARGOS 4.4 08:14:56 10° S 08:20:01 41° WSW 08:25:04 10° NW
Cosmos 1782 2.7 08:22:20 10° S 08:26:30 86° E 08:27:04 65° NNE
Cosmos 2297 Rocket 2.2 08:21:09 10° NNW 08:26:50 86° WSW 08:32:36 10° SSE
Timation 2 Rocket 4.4 08:20:27 10° NW 08:27:17 72° WSW 08:33:57 10° SSE
Cosmos 968 Rocket 3.9 08:27:39 10° NW 08:32:45 61° WSW 08:37:54 10° SSE
H-2A R/B 4.3 08:30:02 10° S 08:33:59 23° WSW 08:37:59 10° WNW
Ariane Rocket 3.7 08:32:06 10° S 08:37:08 54° WSW 08:41:24 14° NW
Cosmos 1515 Rocket 3.6 08:36:02 10° SSW 08:40:35 76° W 08:41:22 58° NNW
Lacrosse 5 rocket 2.4 08:39:44 10° SW 08:43:55 42° SSE 08:45:00 34° ESE
Meteor 2-6 Rocket 4.2 08:41:17 10° S 08:47:06 79° ESE 08:48:39 51° NNE
Cosmos 2154 Rocket 4.0 08:46:27 37° N 08:49:16 89° E 08:55:46 10° S
Cosmos 773 Rocket 3.9 08:45:35 10° SSW 08:50:51 86° ESE 08:51:44 62° NNE
Meteor 2-3 Rocket 4.4 08:46:37 18° NNW 08:50:59 55° WSW 08:56:45 10° S
Nadezhda 3 Rocket 4.0 08:45:11 10° S 08:51:27 80° W 08:53:37 43° N
SPOT 1/Viking Rocket 4.0 08:48:34 10° SSE 08:53:30 43° E 08:53:30 43° E
SJ 16-02 3.7 08:55:49 13° ESE 08:55:49 13° ESE 08:56:35 10° ESE
Resurs 1-3 4.3 08:49:32 10° S 08:53:54 52° WSW 08:55:35 33° NW
Cosmos 2219 4.0 08:51:07 10° NW 08:56:42 52° SW 09:02:17 10° SSE
Cosmos 405 Rocket 4.4 08:59:16 25° SE 08:59:16 25° SE 09:01:29 10° SSE
MetOp-B 4.1 08:53:46 10° SSE 08:59:13 70° ENE 08:59:58 61° NNE
Cosmos 2237 Rocket 3.8 08:54:46 10° SW 08:59:26 26° WNW 09:01:45 20° NW
SeaSat 1 2.3 08:54:41 10° SSE 08:59:42 73° ENE 09:00:08 68° NNE
ISS -1.7 08:57:04 10° WSW 08:58:41 24° W 08:58:41 24° W
Cosmos 1184 Rocket 4.1 09:01:46 40° S 09:01:46 40° S 09:04:04 10° S
Cosmos 1437 Rocket 4.3 08:57:36 10° S 09:00:21 26° SE 09:00:21 26° SE
Cosmos 1633 4.4 09:01:52 23° W 09:02:56 26° WSW 09:06:07 10° SSW
Cosmos 2228 Rocket 3.0 08:58:48 10° S 09:03:19 87° W 09:03:22 86° NW
USA 267 4.1 08:58:07 10° ESE 09:04:30 52° SSW 09:10:51 10° W
USA 81 4.0 09:04:04 63° N 09:04:58 89° E 09:10:23 10° S
Cosmos 2082 3.6 09:03:43 45° NNW 09:05:37 90° WSW 09:11:22 10° SSE
Meteor 2-12 Rocket 4.4 09:06:44 56° NE 09:07:51 67° E 09:14:01 10° SSE
Meteor 1-10 Rocket 4.2 09:01:57 10° SSW 09:07:52 88° WNW 09:09:05 59° N
IGS 5A 3.5 09:04:03 10° SSE 09:07:56 74° SSE 09:07:56 74° SSE
Cosmos 1862 3.6 09:09:00 64° SSE 09:09:00 64° SSE 09:12:31 10° S
Landsat 7 3.7 09:03:44 10° SSE 09:08:36 77° ENE 09:08:42 77° ENE
Cosmos 1867 3.8 09:06:10 10° SW 09:11:28 55° WNW 09:11:58 53° NW
Nimbus 7 Rocket 4.3 09:10:51 58° NE 09:12:02 78° ESE 09:17:59 10° SSW
Cosmos 1500 Rocket 3.7 09:13:48 65° W 09:14:02 66° WSW 09:18:32 10° S
Sich 1 3.8 09:15:03 42° SE 09:15:03 42° SE 09:18:28 10° SSE
Cosmos 1943 3.8 09:09:22 10° SSW 09:14:54 47° SE 09:16:02 42° E
NOSS 3-2 (C) 4.4 09:08:40 10° SW 09:15:12 43° SSE 09:18:05 27° E
Cosmos 2366 rocket 4.2 09:16:07 49° ENE 09:16:44 51° E 09:22:44 10° SSE
Cosmos 1743 Rocket 4.2 09:25:01 48° W 09:25:29 50° WSW 09:29:55 10° S
CENTAUR R/B 3.1 09:19:49 10° SW 09:25:39 43° SE 09:27:34 32° E
ERS-1 Rocket 3.4 09:20:40 10° SSE 09:25:08 49° ESE 09:25:08 49° ESE
SL-16 R/B 2.9 09:20:36 10° SW 09:26:00 42° WNW 09:26:49 40° NW
Timation 1 Rocket 4.2 09:29:35 68° N 09:30:19 79° ENE 09:36:23 10° SSE
Cosmos 1812 3.8 09:27:05 10° SSW 09:30:12 43° WSW 09:30:12 43° WSW
Thor Agena Rocket 3.6 09:30:50 60° WNW 09:31:09 61° WNW 09:36:16 10° SSW
Cosmos 2227 Rocket 3.5 09:25:53 10° WNW 09:31:12 39° SW 09:36:35 10° SSE
Meteor 1-27 Rocket 3.7 09:30:42 10° SSW 09:36:46 84° W 09:37:29 70° N
Cosmos 2263 Rocket 2.7 09:38:43 46° E 09:38:43 46° E 09:43:22 10° SE
Cosmos 1727 Rocket 4.0 09:37:38 10° S 09:44:05 68° ESE 09:44:56 61° ENE
Resurs 01 Rocket 3.4 09:40:14 10° S 09:44:07 28° WSW 09:45:38 23° W
Cosmos 1538 Rocket 4.3 09:40:58 10° SSW 09:45:59 55° WNW 09:45:59 55° WNW
CARTOSAT-1 4.0 09:45:07 10° SSE 09:48:47 60° S 09:48:47 60° S
ARIANE 5 R/B 3.5 09:46:21 10° S 09:50:31 42° WSW 09:50:43 42° WSW
Cosmos 1805 Rocket 4.2 09:51:44 53° WSW 09:51:44 53° WSW 09:55:54 10° S
Cosmos 1680 Rocket 3.7 09:47:19 10° SSW 09:52:38 63° ESE 09:52:39 63° ESE
Cosmos 1666 Rocket 4.2 09:53:51 54° SSE 09:53:51 54° SSE 09:57:26 10° SSE
USA 238 DEB 3.6 09:53:33 10° SW 10:00:37 87° SE 10:01:45 65° NE
USA 238 3.6 09:53:39 10° SW 10:00:43 87° SE 10:01:51 65° NE
Cosmos 2112 Rocket 4.2 09:56:15 10° SSW 10:01:30 64° ESE 10:01:30 64° ESE
Terra 2.2 09:57:53 10° SSE 10:01:59 61° SE 10:01:59 61° SE
Gbstr 26 Del rocket 4.1 10:03:22 66° N 10:04:02 70° NNE 10:10:31 10° ESE
Spot 2 Rocket 4.2 10:00:03 10° S 10:04:58 47° WSW 10:05:40 44° W
NOSS 3-2 (A) 3.2 09:58:57 10° SW 10:05:35 81° NW 10:05:48 79° NNW
Lacrosse 4 Rocket 3.7 10:03:11 10° S 10:06:26 19° SE 10:07:50 17° ESE
Cosmos 2218 Rocket 4.1 10:08:52 59° NW 10:09:49 67° WSW 10:16:04 10° S
ATLAS 3B R/B 4.0 10:03:50 10° SW 10:10:37 38° SSE 10:16:50 11° E
GEOS 3 Rocket 3.6 10:06:25 10° SE 10:11:03 74° SE 10:11:03 74° SE
Cosmos 1603 3.9 10:10:58 10° SW 10:16:28 59° W 10:16:28 59° W
SPOT 5 3.3 10:13:55 10° S 10:19:09 62° WSW 10:19:23 61° W
Lacrosse 5 rocket 3.5 10:19:04 10° WSW 10:20:37 21° WSW 10:20:37 21° WSW
Cosmos 2227 4.2 10:23:24 76° W 10:23:39 78° WSW 10:29:30 10° SSE
Cosmos 158 Rocket 4.4 10:20:24 10° SSW 10:25:12 59° WSW 10:25:12 59° WSW
Cosmos 1821 Rocket 3.9 10:28:52 74° NE 10:29:14 76° E 10:35:40 10° SSE
Cosmos 2242 Rocket 4.4 10:25:27 10° S 10:28:54 49° SSE 10:28:54 49° SSE
Meteor 1-19 Rocket 4.1 10:25:29 10° S 10:30:58 82° SE 10:30:58 82° SE
SJ 16-02 2.2 10:32:47 49° SSW 10:32:47 49° SSW 10:36:20 10° SSE
Resurs 1-4 Rocket 3.5 10:33:49 27° E 10:34:56 29° ESE 10:39:30 10° S
SeaSat 1 4.5 10:32:50 10° S 10:36:47 24° SW 10:39:54 14° W
Cosmos 1703 Rocket 4.5 10:33:50 10° S 10:37:10 47° SSE 10:37:10 47° SSE
Meteor 1-20 Rocket 4.4 10:43:04 65° W 10:43:22 66° WSW 10:49:17 10° S
Cosmos 1898 Rocket 3.6 10:44:08 70° SE 10:44:08 70° SE 10:48:51 10° SSE
Meteor 1-14 Rocket 4.3 10:45:20 75° ENE 10:45:24 76° E 10:51:30 10° SSE
USA 267 4.4 10:40:39 10° ESE 10:46:49 43° S 10:53:00 10° WSW
Helios 1B rocket 3.6 10:49:47 43° S 10:49:47 43° S 10:52:45 10° S
Meteor 2-4 Rocket 3.7 10:43:04 10° S 10:48:30 71° ESE 10:48:30 71° ESE
Cosmos 1633 Rocket 4.5 10:50:42 33° SW 10:50:42 33° SW 10:54:11 10° S
CZ-2D R/B 3.1 10:50:36 36° E 10:51:35 39° ESE 10:56:43 10° S
ALOS 2 4.2 10:49:32 10° SSE 10:52:25 28° ESE 10:52:25 28° ESE
Cosmos 1943 4.4 10:53:46 10° SW 10:57:50 31° W 10:57:50 31° W
Cosmos 1238 Rocket 4.1 11:02:42 41° S 11:02:42 41° S 11:05:46 10° S
NOSS 3-2 (C) 3.8 11:00:01 10° SW 11:05:30 50° W 11:05:30 50° W
NOSS 3-4 (A) 4.0 11:07:30 60° N 11:08:50 69° NE 11:16:36 10° SE
NOSS 3-4 (C) 4.0 11:07:36 60° N 11:08:55 69° NE 11:16:42 10° SE
Cosmos 1844 Rocket 3.0 11:11:39 57° E 11:11:39 57° E 11:16:47 10° SE
Cosmos 1605 Rocket 4.0 11:11:26 61° ENE 11:11:51 62° E 11:17:58 10° SSE
Meteor 2-20 Rocket 4.5 11:09:28 10° SSW 11:15:39 65° W 11:15:50 65° WNW
CENTAUR R/B 3.1 11:10:46 10° SW 11:14:43 36° W 11:14:43 36° W
Cosmos 1934 Rocket 3.9 11:18:14 73° NW 11:18:49 80° W 11:25:15 10° S
CZ-4C R/B 3.6 11:19:41 37° NE 11:20:17 37° ENE 11:26:44 10° SE
Cosmos 1844 4.0 11:21:52 58° ENE 11:21:52 58° ENE 11:27:26 10° SE
Cosmos 372 Rocket 4.2 11:22:15 63° ESE 11:22:15 63° ESE 11:27:01 10° SSE
Cosmos 2263 Rocket 3.5 11:20:22 28° W 11:22:03 34° SW 11:27:11 10° SSE
Okean 3 4.3 11:18:32 10° S 11:21:53 50° S 11:21:53 50° S
Cosmos 1535 Rocket 4.3 11:22:32 75° NW 11:22:58 79° W 11:29:13 10° S
Okean 1-7 4.4 11:22:15 10° SSW 11:24:59 33° SW 11:24:59 33° SW
Cosmos 1461 4.3 11:22:49 10° SSW 11:25:13 33° S 11:25:13 33° S
ATLAS 2AS CENTAUR R/B 2.3 11:28:23 70° NE 11:28:32 71° NE 11:34:50 10° SE
Cosmos 1048 Rocket 4.2 11:23:45 10° SSW 11:28:56 64° ESE 11:29:05 63° ESE
Cosmos 2123 Rocket 4.1 11:24:10 10° SSW 11:30:23 59° W 11:30:43 58° WNW
Meteor 1-5 Rocket 4.2 11:35:39 75° WNW 11:35:57 77° WSW 11:41:49 10° S
Terra 3.9 11:36:47 10° SSW 11:39:55 17° WSW 11:40:53 17° WSW
Cosmos 1666 4.0 11:41:33 39° S 11:41:33 39° S 11:44:09 10° S
Lacrosse 4 Rocket 2.6 11:41:16 10° SW 11:44:07 39° SW 11:44:07 39° SW
AQUA 4.0 11:47:14 67° ESE 11:47:15 67° ESE 11:52:04 10° S
Cosmos 1833 Rocket 3.7 11:45:51 10° SSW 11:51:17 43° SE 11:55:02 19° ENE
Gbstr 26 Del rocket 4.2 11:45:41 16° W 11:51:32 70° S 11:57:26 10° ESE
Cosmos 1937 Rocket 4.4 11:52:32 38° WSW 11:53:10 40° WSW 11:58:15 10° SSE
Cosmos 1447 Rocket 4.4 11:46:49 10° SSW 11:53:13 79° W 11:54:01 68° NNW
ARIANE 5 R/B 4.3 11:51:02 15° ENE 11:54:26 28° ESE 11:58:55 10° S
Cosmos 1378 4.5 11:52:11 10° S 11:54:44 39° S 11:54:44 39° S
